Flag for Egypt Weather past 2 weeks in Port Said, Egypt

Now
70 °F

Scattered clouds.


Feels Like: 70 °F
Forecast: 69 / 84 °F
Wind: 8 mph from South

Location: Port Said Airport

Current Time: Oct 22, 2014 at 9:07:06 AM

Latest Report: Oct 22, 2014 at 8:00 AM


Visibility: N/A

Pressure: 30.01 "Hg

Humidity: 69%

Dew point: 59 °F

Location of Port SaidLocation

Historic Weather in Port Said — Graph

°F

Port Said temperature yesterday

Maximum temperature yesterday: 79 °F (at 1:00 PM)
Minimum temperature yesterday: 68 °F (at 7:00 AM)
Average temperature yesterday: 73 °F

Past Weeks' High & Low Weather Summary

 TemperatureHumidityPressure
High84 °F (Oct 7, 12:00 PM)94% (Oct 18, 7:00 AM)30.15 "Hg (Oct 18, 7:00 AM)
Low68 °F (Oct 21, 7:00 AM)48% (Oct 13, 3:00 PM)29.77 "Hg (Oct 19, 2:00 PM)
Average76 °F70%29.97 "Hg
* Reported Oct 7 7:00 AM — Oct 22 7:00 AM, Port Said, Weather by CustomWeather, © 2014

Note: Actual official high and low records may vary slightly from our data, if they occured in-between our weather recording intervals... More about our weather records

Advertising

Port Said weather history for previous 24 hours

 ConditionsComfort  
Time TempWeatherWind HumidityBarometerVisibility
7:00 AM
Oct 22
68 °FScattered clouds.7 mph73%30.01 "HgN/A
6:00 AM68 °FScattered clouds.6 mph73%29.98 "HgN/A
5:00 AM70 °FClear.7 mph69%29.98 "Hg10 mi
4:00 AM72 °FPassing clouds.No wind65%29.98 "HgN/A
3:00 AM72 °FPassing clouds.No wind61%29.98 "HgN/A
2:00 AM72 °FPassing clouds.No wind65%29.98 "HgN/A
1:00 AM72 °FPassing clouds.3 mph65%30.01 "HgN/A
12:00 AM72 °FPassing clouds.3 mph65%30.01 "HgN/A
11:00 PM
Oct 21
72 °FClear.6 mph65%30.01 "Hg10 mi
10:00 PM72 °FClear.5 mph65%30.04 "Hg10 mi
9:00 PM73 °FClear.5 mph57%30.04 "Hg10 mi
8:00 PM73 °FClear.3 mph61%30.01 "Hg10 mi
7:00 PM73 °FClear.5 mph61%30.01 "Hg10 mi
6:00 PM73 °FClear.6 mph57%29.98 "Hg10 mi
5:00 PM73 °FSunny.6 mph57%29.98 "Hg10 mi
3:00 PM75 °FSunny.3 mph54%29.98 "Hg10 mi
2:00 PM77 °FSunny.6 mph51%29.98 "Hg10 mi
1:00 PM79 °FScattered clouds.6 mph54%29.98 "HgN/A
12:00 PM77 °FScattered clouds.5 mph57%30.01 "HgN/A
11:00 AM75 °FScattered clouds.7 mph61%30.01 "HgN/A
10:00 AM75 °FScattered clouds.7 mph57%30.01 "HgN/A
9:00 AM73 °FScattered clouds.5 mph65%30.01 "HgN/A
Weather by CustomWeather, © 2014

See weather overviewHow to use our weather pages